User: anonymous   Login
Location: Prairie Dale
(45.6972°N, 104.5033°W)
Time: 09:09:20
(UTC+00:00)
Language:

UNISAT 6 - Orbit

View from above orbital plane
View from above orbital plane
View from above satellite
View from above satellite

Ground track
Ground track

The orbit data is extracted from the following two-line orbital elements,

1 40012U 14033C   22177.47498528  .00001051  00000-0  15935-3 0  9997
2 40012  97.6616   4.9565 0058640 128.9483 231.6974 14.74928192431312
Epoch (UTC): 26 June 2022 11:23:58
Eccentricity: 0.0058640
inclination: 97.6616°
perigee height: 604 km
apogee height: 686 km
right ascension of ascending node: 4.9565°
argument of perigee: 128.9483°
revolutions per day: 14.74928192
mean anomaly at epoch: 231.6974°
orbit number at epoch: 43131

The dashed part of the orbit path shows where the satellite is in the earth's shadow,  

DLR